User: anonymous   Login
Location: Miss�
(46.9484°N, 0.1922°W)
Time: 23:33:51
(UTC+00:00)
Language:

Cosmos 1869 Rocket - Orbit

View from above orbital plane
View from above orbital plane
View from above satellite
View from above satellite

Ground track
Ground track

The orbit data is extracted from the following two-line orbital elements,

1 18215U 87062B   21136.17386234  .00000095  00000-0  85946-5 0  9998
2 18215  82.5149  24.1840 0022027  96.2586  19.0413 14.83261125806696
Epoch (UTC): 16 May 2021 04:10:21
Eccentricity: 0.0022027
inclination: 82.5149°
perigee height: 603 km
apogee height: 634 km
right ascension of ascending node: 24.1840°
argument of perigee: 96.2586°
revolutions per day: 14.83261125
mean anomaly at epoch: 19.0413°
orbit number at epoch: 80669

The dashed part of the orbit path shows where the satellite is in the earth's shadow,  

DLR